Bucharest, Romania

11:50 PM EEST on June 22, 2017 (GMT +0300)
Baneasa

Weather History for LRBS - February, 2014

Change the Weather History Date:

Tuesday, February 11, 2014

  Actual Average Record
Temperature  
Mean Temperature 38 °F -  
Max Temperature 50 °F 43 °F 62 °F (2007)
Min Temperature 25 °F 29 °F 0 °F (2012)
Degree Days  
Heating Degree Days 28    
Moisture  
Dew Point 30 °F    
Average Humidity 74    
Maximum Humidity 100    
Minimum Humidity 35    
Precipitation  
Precipitation 0.00 in 0.05 in - ()
Sea Level Pressure  
Sea Level Pressure 29.96 in    
Wind  
Wind Speed 3 mph ()    
Max Wind Speed 8 mph    
Max Gust Speed -    
Visibility 6.0 miles    
Events      
Averages and records for this station are not official NWS values.
T = Trace of Precipitation, MM = Missing Value Source: Averaged Metar Reports

Daily Weather History Graph

Daily Weather History Graph

Search for Another Location

Airport or City:

Trip Planner

Search our weather history database for the weather conditions in past years. The results will help you decide how hot, cold, wet, or windy it might be!

Date:

Astronomy

Feb. 11, 2014 Rise Set
Actual Time 7:21 AM EET 5:38 PM EET
Civil Twilight 6:51 AM EET 6:08 PM EET
Nautical Twilight 6:17 AM EET 6:42 PM EET
Astronomical Twilight 5:43 AM EET 7:16 PM EET
Moon 2:38 PM EET (2/11) 4:48 AM EET (2/11)
Length of Visible Light 11h 17m
Length of Day
10h 16m
Waxing Gibbous, 89% of the Moon is Illuminated
Feb 11
Waxing Gibbous
Feb 15
Full
Feb 22
Last Quarter
Mar 1
New
Mar 8
First Quarter

Hourly Weather History & Observations

Time (EET) Temp. Windchill Dew Point Humidity Pressure Visibility Wind Dir Wind Speed Gust Speed Precip Events Conditions
12:00 AM 28 °F - 26 °F 89% 29.99 in 6 mi Calm Calm - -  
12:00 AM 30.2 °F - 28.4 °F 93% 29.98 in - Calm Calm - N/A   Clear
12:30 AM 30.2 °F - 28.4 °F 93% 29.95 in - East 2.3 mph - N/A   Clear
1:00 AM 27 °F - 25 °F 91% 29.99 in 6 mi Calm Calm - -  
1:00 AM 30.2 °F - 30.2 °F 100% 29.98 in - Calm Calm - N/A   Clear
1:30 AM 26.6 °F 22.6 °F 26.6 °F 100% 29.95 in - ENE 3.5 mph - N/A   Clear
2:00 AM 28 °F - 26 °F 90% 29.98 in 6 mi NE 4.5 mph - -  
2:00 AM 30.2 °F - 28.4 °F 93% 29.98 in - Variable 2.3 mph - N/A   Clear
3:00 AM 26 °F - 25 °F 93% 30.00 in 6 mi North 2.2 mph - -  
3:00 AM 28.4 °F - 28.4 °F 100% 29.98 in - Calm Calm - N/A   Clear
3:30 AM 30.2 °F - 28.4 °F 93% 29.98 in - Calm Calm - N/A   Clear
4:00 AM 27 °F - 26 °F 92% 30.00 in 6 mi Calm Calm - -  
4:00 AM 30.2 °F - 28.4 °F 93% 29.98 in - ENE 2.3 mph - N/A   Clear
4:30 AM 28.4 °F - 28.4 °F 100% 29.98 in - NE 2.3 mph - N/A   Clear
5:00 AM 29 °F - 27 °F 90% 30.00 in 6 mi North 2.2 mph - -   Mostly Cloudy
5:00 AM 30.2 °F 26.7 °F 30.2 °F 100% 29.98 in - ENE 3.5 mph - N/A   Clear
5:30 AM 32.0 °F 27.5 °F 32.0 °F 100% 29.98 in - ENE 4.6 mph - N/A   Clear
6:00 AM 33 °F - 30 °F 82% 30.00 in 6 mi NE 4.5 mph - -   Mostly Cloudy
6:00 AM 32.0 °F 28.7 °F 30.2 °F 93% 29.98 in - ENE 3.5 mph - N/A   Clear
6:30 AM 32.0 °F 27.5 °F 30.2 °F 93% 29.98 in - NE 4.6 mph - N/A   Clear
7:00 AM 33 °F - 29 °F 77% 29.99 in 6 mi NE 4.5 mph - -   Scattered Clouds
7:00 AM 32.0 °F 28.7 °F 30.2 °F 93% 29.98 in - NE 3.5 mph - N/A   Clear
7:30 AM 33.8 °F - 30.2 °F 87% 29.98 in - Variable 2.3 mph - N/A   Clear
8:00 AM 33 °F - 28 °F 73% 30.01 in 6 mi NNE 4.5 mph - -   Scattered Clouds
8:00 AM 33.8 °F 30.8 °F 30.2 °F 87% 29.98 in - ENE 3.5 mph - N/A   Clear
8:30 AM 32.0 °F 28.7 °F 28.4 °F 87% 29.98 in - ENE 3.5 mph - N/A   Clear
9:00 AM 36 °F - 27 °F 61% 30.00 in 6 mi NE 2.2 mph - -   Scattered Clouds
9:00 AM 33.8 °F 30.8 °F 30.2 °F 87% 29.98 in - ENE 3.5 mph - N/A   Clear
9:30 AM 37.4 °F 32.8 °F 30.2 °F 75% 29.98 in - ENE 5.8 mph - N/A   Clear
10:00 AM 41 °F - 28 °F 49% 29.99 in 6 mi NE 4.5 mph - -   Scattered Clouds
10:00 AM 41.0 °F 36.4 °F 30.2 °F 65% 29.98 in - ENE 6.9 mph - N/A   Clear
10:30 AM 41.0 °F 37.1 °F 30.2 °F 65% 29.98 in - East 5.8 mph - N/A   Clear
11:00 AM 45 °F - 29 °F 41% 30.00 in 6 mi ENE 4.5 mph - -   Clear
11:00 AM 42.8 °F 40.1 °F 28.4 °F 57% 29.98 in - ENE 4.6 mph - N/A   Clear
11:30 AM 42.8 °F 38.6 °F 30.2 °F 61% 29.98 in - East 6.9 mph - N/A   Clear
12:00 PM 47 °F - 29 °F 38% 30.00 in 6 mi ENE 6.7 mph - -   Clear
12:00 PM 42.8 °F 38.0 °F 32.0 °F 66% 29.98 in - East 8.1 mph - N/A   Clear
12:30 PM 42.8 °F 38.0 °F 32.0 °F 66% 29.98 in - East 8.1 mph - N/A   Clear
1:00 PM 47 °F - 30 °F 39% 29.99 in 6 mi East 4.5 mph - -   Scattered Clouds
1:00 PM 44.6 °F 40.2 °F 30.2 °F 57% 29.95 in - East 8.1 mph - N/A   Clear
1:30 PM 44.6 °F 41.4 °F 30.2 °F 57% 29.95 in - East 5.8 mph - N/A   Clear
2:00 PM 48 °F - 30 °F 37% 29.97 in 6 mi ENE 4.5 mph - -   Partly Cloudy
2:00 PM 48.2 °F - 30.2 °F 50% 29.95 in - East 5.8 mph - N/A   Clear
2:30 PM 46.4 °F 43.5 °F 30.2 °F 53% 29.95 in - East 5.8 mph - N/A   Clear
3:00 PM 48 °F - 30 °F 38% 29.96 in 6 mi SE 4.5 mph - -   Clear
3:00 PM 46.4 °F 45.2 °F 30.2 °F 53% 29.92 in - East 3.5 mph - N/A   Clear
3:30 PM 46.4 °F 44.3 °F 30.2 °F 53% 29.92 in - East 4.6 mph - N/A   Clear
4:00 PM 49 °F - 30 °F 35% 29.93 in 6 mi ESE 4.5 mph - -   Clear
4:00 PM 48.2 °F - 28.4 °F 46% 29.92 in - East 4.6 mph - N/A   Clear
4:30 PM 48.2 °F - 30.2 °F 50% 29.92 in - ESE 3.5 mph - N/A   Clear
5:00 PM 49 °F - 30 °F 35% 29.93 in 6 mi SSE 2.2 mph - -   Clear
5:00 PM 48.2 °F - 28.4 °F 46% 29.92 in - East 2.3 mph - N/A   Clear
5:30 PM 42.8 °F - 32.0 °F 66% 29.92 in - East 2.3 mph - N/A   Clear
6:00 PM 44 °F - 30 °F 46% 29.94 in 6 mi East 2.2 mph - -   Partly Cloudy
6:00 PM 41.0 °F 39.0 °F 32.0 °F 70% 29.92 in - ENE 3.5 mph - N/A   Clear
6:30 PM 39.2 °F 35.9 °F 33.8 °F 81% 29.92 in - East 4.6 mph - N/A   Clear
7:00 PM 40 °F - 30 °F 56% 29.95 in 6 mi East 2.2 mph - -   Scattered Clouds
7:00 PM 39.2 °F - 33.8 °F 81% 29.92 in - NE 1.2 mph - N/A   Clear
7:30 PM 39.2 °F - 33.8 °F 81% 29.92 in - Variable 2.3 mph - N/A   Clear
8:00 PM 35 °F - 30 °F 74% 29.94 in 6 mi ENE 2.2 mph - -   Scattered Clouds
8:00 PM 41.0 °F - 33.8 °F 76% 29.92 in - Variable 2.3 mph - N/A   Clear
8:30 PM 41.0 °F - 33.8 °F 76% 29.92 in - Variable 1.2 mph - N/A   Clear
9:00 PM 38 °F - 32 °F 71% 29.94 in 6 mi North 4.5 mph - -   Clear
9:00 PM 39.2 °F - 33.8 °F 81% 29.92 in - NE 1.2 mph - N/A   Clear
9:30 PM 37.4 °F 34.9 °F 33.8 °F 87% 29.92 in - East 3.5 mph - N/A   Clear
10:00 PM 34 °F - 30 °F 81% 29.94 in 6 mi NNE 2.2 mph - -   Clear
10:00 PM 37.4 °F - 33.8 °F 87% 29.92 in - North 2.3 mph - N/A   Clear
10:30 PM 37.4 °F - 33.8 °F 87% 29.92 in - Calm Calm - N/A   Clear
11:00 PM 33 °F - 30 °F 83% 29.94 in 6 mi North 2.2 mph - -   Clear
11:00 PM 37.4 °F - 33.8 °F 87% 29.92 in - Calm Calm - N/A   Clear
11:30 PM 37.4 °F - 33.8 °F 87% 29.92 in - Calm Calm - N/A   Clear